Regional Weather Roundup
Issued by NWS Sterling, VA

Home | Current Version | Previous Version | Graphics & Text | Print | Product List | Glossary On
Versions: 1 2 3 4 5 6 7 8 9 10 11 12 13 14 15 16 17 18 19 20 21 22 23 24 25 26 27 28 29 30 31 32 33 34 35 36 37 38 39 40 41 42 43 44 45 46 47 48
000
ASUS41 KLWX 291110
RWRLWX

REGIONAL WEATHER ROUNDUP
NATIONAL WEATHER SERVICE BALTIMORE MD/WASHINGTON DC
700 AM EDT MON SEP 29 2014

Note: "FAIR" indicates few or no clouds below 12,000 feet
with no significant weather and/or obstructions to visibility.
 TC=TEMPERATURE CELSIUS

 * =Non NWS site. Station does not report precipitation (e.g. rain,
    snow, etc.), thunder, or fog.

DCZ001-MDZ009-015-VAZ040>042-051-053>054-291200-
WASHINGTON METRO

CITY           SKY/WX    TMP DP  RH WIND       PRES   REMARKS
WASHINGTON NAT CLOUDY    66  60  81 CALM      30.02S
DULLES         CLOUDY    59  58  96 CALM      30.01F
ANDREWS AFB    CLOUDY    61  60  97 S3        30.01S
QUANTICO       CLOUDY    62  59  90 W6        30.03R
COLLEGE PARK*  CLOUDY    61  61 100 CALM      30.01S
LEESBURG*      CLOUDY    59  59 100 NW3       30.02F
MANASSAS*      CLOUDY    59  57  94 CALM      30.02R
GAITHERSBURG*  CLOUDY    59  57  94 CALM      30.06R

$$

MDZ006>007-011-014-291200-
BALTIMORE METRO

CITY           SKY/WX    TMP DP  RH WIND       PRES   REMARKS
BWI AIRPORT    MOCLDY    60  58  92 CALM      30.01R
MD SCIENCE CTR   N/A     67  60  78 MISG      30.01S
MARTIN STATE   MOCLDY    63  63 100 CALM      30.02S FOG
ANNAPOLIS        N/A    N/A N/A N/A MISG      30.01R
FORT MEADE*    MOCLDY    55  54  94 CALM      30.03S

$$

MDZ012-015-019>023-291200-
MARYLAND EASTERN SHORE

CITY           SKY/WX    TMP DP  RH WIND       PRES   REMARKS
OCEAN CITY     FOG      N/A N/A N/A CALM      30.01F VSB 1/4
SALISBURY      FOG       61  57  88 CALM      30.02S VSB 1/2
BAY BRIDGE AP*   N/A     63  61  94 CALM      30.02R
CAMBRIDGE*     CLOUDY    59  55  88 CALM      30.01S
EASTON*        MOCLDY    63  63 100 CALM      30.05S

$$

MDZ017>025-291200-
SOUTHERN MARYLAND

CITY           SKY/WX    TMP DP  RH WIND       PRES   REMARKS
PATUXENT RIVER CLOUDY    60  58  92 CALM      30.02R
ST INIGOES     CLOUDY    61  57  87 CALM      30.02R FOG
LEONARDTOWN*   CLOUDY    59  55  88 CALM      30.04R

$$

MDZ003>005-291200-
NORTH CENTRAL MARYLAND

CITY           SKY/WX    TMP DP  RH WIND       PRES   REMARKS
FREDERICK*     CLEAR     61  61 100 CALM      30.03F
HAGERSTOWN APT CLOUDY    62  56  80 CALM      30.01F
WESTMINSTER*   CLOUDY    61  55  82 CALM      30.02S

$$

MDZ501>502-291200-
WESTERN MARYLAND

CITY           SKY/WX    TMP DP  RH WIND       PRES   REMARKS
OAKLAND*       CLOUDY    55 N/A N/A W5        30.11R
CUMBERLAND*    NOT AVBL

$$

VAZ025>031-291200-
SHENANDOAH VALLEY

CITY           SKY/WX    TMP DP  RH WIND       PRES   REMARKS
WINCHESTER*    CLOUDY    61  55  82 SE3       30.02F
STAUNTON*      CLOUDY    57  54  89 CALM      30.06S

$$

WVZ021-048>050-054>055-291200-
EASTERN WEST VIRGINIA PANHANDLE

CITY           SKY/WX    TMP DP  RH WIND       PRES   REMARKS
MARTINSBURG    CLOUDY    61  57  87 N6        30.02S
PETERSBURG*    CLOUDY   N/A N/A N/A NW3       30.05F

$$

VAZ036>039-050-291200-
CENTRAL FOOTHILLS

CITY           SKY/WX    TMP DP  RH WIND       PRES   REMARKS
CHARLOTTESVILL CLOUDY    60  58  92 CALM      30.01F
ORANGE*        CLOUDY    55  55 100 CALM      30.03S FOG

$$

VAZ055>057-291200-
NORTH AND CENTRAL PIEDMONT

CITY           SKY/WX    TMP DP  RH WIND       PRES   REMARKS
FREDERICKSBRG* CLOUDY    60  60 100 CALM      30.01S
STAFFORD*      MOCLDY    57  57 100 CALM      30.06S FOG

$$

NCZ024-NYZ072-PAZ021-071-VAZ022-071-291200-
OTHER REGIONAL OBSERVATIONS

CITY           SKY/WX    TMP DP  RH WIND       PRES   REMARKS
NEW YORK CITY  CLOUDY    67  57  70 W3        30.01R
PHILADELPHIA   CLOUDY    64  61  90 SW5       30.01S
PITTSBURGH     PTCLDY    55  52  89 CALM      30.03F
ROANOKE        CLOUDY    62  59  90 N5        30.07F
RICHMOND       CLOUDY    65  60  84 CALM      30.02F
RALEIGH        LGT RAIN  64  61  90 CALM      30.05R

$$

ANZ530>537-291200-
MARINE OBSERVATIONS

STATION/POSITION TIME  TEMP    WIND        PRES
                       AIR SEA DIR/SP/G
                 (UTC) (F)     (DEG/KT/KT) (MB)
THOMAS PT LIGHT  1100   66 71  260/  4/  5 1017.3R
BALT KEY BRIDGE  1100   89     190/  3/  4 1015.9S
COVE POINT       1100   66      CALM  /  2 1016.1S
LEWISETTA        1100   64 71  270/  3/  4 1016.1R
SOLOMONS ISLAND  1100      72                N/A
PINEY POINT      1100          270/  4/  5   N/A

$$



USA.gov is the U.S. government's official web portal to all federal, state and local government web resources and services.